Regional Weather Roundup
Issued by NWS

Home | Current Version | Previous Version | Graphics & Text | Print | Product List | Glossary On
Versions: 1 2 3 4 5 6 7 8 9 10 11 12 13 14 15 16 17 18 19 20 21 22 23 24 25 26 27 28 29 30 31 32 33 34 35 36 37 38 39 40 41 42 43 44 45 46 47 48 49 50
000
ASUS43 KOAX 180410
RWRNE

WEATHER ROUNDUP FOR NEBRASKA
NATIONAL WEATHER SERVICE OMAHA NE
1000 PM CST TUE JAN 17 2017

NOTES: SATELLITE DATA IS BEING USED TO AUGMENT CLOUD COVER ABOVE
       12000 FEET.
       "FAIR" INDICATES FEW OR NO CLOUDS BELOW 12,000 FEET WITH NO
       SIGNIFICANT WEATHER AND/OR OBSTRUCTIONS TO VISIBILITY.

  * THESE STATIONS DO NOT REPORT WEATHER SUCH AS RAIN...SNOW OR FOG.

NEZ001>004-019>022-054>056-180500-
NEBRASKA PANHANDLE

CITY           SKY/WX    TMP DP  RH WIND       PRES   REMARKS
SCOTTSBLUFF    CLOUDY    30  14  51 NW7       29.98S WCI  23
ALLIANCE       CLOUDY    19  15  84 W8        29.95S WCI   9
CHADRON        CLOUDY    18  14  84 SW8       29.95R WCI   8
KIMBALL        CLOUDY    30  28  91 W8        29.99S WCI  23
SIDNEY         CLOUDY    27  23  85 W6        29.99S WCI  20
$$

NEZ057>060-069>072-079>082-180500-
SOUTHWEST NEBRASKA

CITY           SKY/WX    TMP DP  RH WIND       PRES   REMARKS
NORTH PLATTE   CLEAR     25  22  88 N3        30.01R
IMPERIAL       CLOUDY    30  27  88 SW8       30.02R WCI  22
LEXINGTON      CLOUDY    33  26  76 S5        30.03R WCI  28
MCCOOK         CLEAR     31  27  85 SW9       30.05R WCI  23
OGALLALA       CLOUDY    30  28  92 SW3       30.00R
$$

NEZ005>010-023>029-035>040-094-180500-
NORTH CENTRAL NEBRASKA

CITY           SKY/WX    TMP DP  RH WIND       PRES   REMARKS
VALENTINE      CLOUDY    27  18  69 W8        29.92F WCI  19
AINSWORTH      CLOUDY    33  28  81 SW12      29.92F WCI  24
BROKEN BOW     CLEAR     28  25  88 CALM      29.99S
O`NEILL        CLOUDY    32  28  83 SW9       29.96S WCI  24
ORD            CLEAR     29  25  85 CALM      29.99S
THEDFORD       CLOUDY    29  26  89 CALM      29.97S
$$

NEZ041-046>049-061>064-073>077-083>087-180500-
SOUTH CENTRAL NEBRASKA

CITY           SKY/WX    TMP DP  RH WIND       PRES   REMARKS
GRAND ISLAND   CLOUDY    32  30  92 S7        30.04S WCI  26
AURORA         CLEAR     32  31  97 SW7       30.05S WCI  26
HASTINGS       CLEAR     34  29  82 S7        30.06S WCI  28
HEBRON         CLOUDY    32  30  92 S10       30.10S WCI  24
HOLDREGE       CLOUDY    33  27  78 S8        30.05R WCI  26
KEARNEY *      CLOUDY    32  27  80 SW9       30.05R WCI  24
YORK           CLEAR     32  32 100 SW8       30.06S WCI  25
$$

NEZ011>018-030>034-042>045-180500-
NORTHEAST NEBRASKA

CITY           SKY/WX    TMP DP  RH WIND       PRES   REMARKS
NORFOLK        CLOUDY    31  29  92 S9        30.00F WCI  23
ALBION         CLOUDY    31  30  93 CALM      30.01S
BLAIR          CLOUDY    29  28  94 CALM      30.05F FOG
FREMONT        CLOUDY    31  31 100 CALM      30.06S
TEKAMAH        CLOUDY    30  28  92 SE7       30.06F FOG     WCI  23
WAYNE          CLOUDY    29  28  96 S6        30.01S WCI  23
$$

NEZ050>053-065>068-078-088>093-180500-
SOUTHEAST NEBRASKA

CITY           SKY/WX    TMP DP  RH WIND       PRES   REMARKS
LINCOLN        CLEAR     25  24  96 S7        30.09S WCI  17
OMAHA EPPLEY   CLOUDY    26  22  84 SE7       30.08F FOG     WCI  18
BEATRICE       CLOUDY    29  29  98 S7        30.11R WCI  22
FALLS CITY     CLEAR     29  28  96 S7        30.13S WCI  22
NEBRASKA CITY  CLOUDY    28  28 100 S8        30.10S FOG     WCI  20
PLATTSMOUTH    CLOUDY    28  26  90 S6        30.09R FOG     WCI  22
$$

NEZ044-045-051>053-067-180500-
OMAHA AREA

CITY           SKY/WX    TMP DP  RH WIND       PRES   REMARKS
OMAHA EPPLEY   CLOUDY    26  22  84 SE7       30.08F FOG     WCI  18
BLAIR          CLOUDY    29  28  94 CALM      30.05F FOG
FREMONT        CLOUDY    31  31 100 CALM      30.06S
MILLARD        CLOUDY    28  26  94 CALM      30.08F FOG
OFFUTT AFB     CLEAR     24  24 100 E5        30.08F FOG     WCI  18
PLATTSMOUTH    CLOUDY    28  26  90 S6        30.09R FOG     WCI  22
WAHOO          FAIR      29  28  96 CALM      30.07S
$$




USA.gov is the U.S. government's official web portal to all federal, state and local government web resources and services.